📊 Raw Sensor Data

Showing records 40526 to 40550 of 84,965 total

ID Distance (ft) Battery V Battery A Int Temp (°F) Int Humid (%) Ext Temp (°F) Solar V RSSI SNR Time Stamp
44452 15.6 3.86 -5 53 44 54 0.00 -68 8 06/25/2025 12:45 AM
44451 15.6 3.87 -5 53 44 54 0.00 -68 8 06/25/2025 12:30 AM
44450 15.6 3.94 -5 53 44 55 0.00 -70 8 06/25/2025 12:15 AM
44449 15.6 3.87 -5 53 45 54 0.00 -68 8 06/24/2025 11:45 PM
44448 15.6 3.86 -5 53 45 54 0.00 -68 8 06/24/2025 11:30 PM
44447 15.6 3.87 -5 54 46 55 0.00 -66 9 06/24/2025 11:15 PM
44446 15.6 3.94 -5 54 46 55 0.00 -67 9 06/24/2025 11:00 PM
44445 15.6 3.87 -5 55 46 56 0.00 -66 8 06/24/2025 10:45 PM
44444 15.6 3.95 -5 56 46 57 0.00 -68 9 06/24/2025 10:30 PM
44443 15.6 3.87 -5 56 47 57 0.10 -69 8 06/24/2025 10:15 PM
44442 15.6 3.87 -5 57 48 58 0.00 -68 8 06/24/2025 10:00 PM
44441 15.5 3.87 -5 57 49 58 0.00 -67 8 06/24/2025 09:45 PM
44440 15.6 3.95 -5 58 50 59 0.00 -68 8 06/24/2025 09:30 PM
44439 15.6 3.95 -5 60 51 60 0.00 -81 8 06/24/2025 09:15 PM
44438 15.6 3.95 -5 61 52 60 0.00 -84 8 06/24/2025 09:00 PM
44437 15.6 3.87 -35 63 54 61 0.70 -83 7 06/24/2025 08:45 PM
44436 15.6 3.94 -10 66 54 63 3.70 -83 7 06/24/2025 08:30 PM
44435 15.7 3.89 0 71 53 66 4.50 -82 8 06/24/2025 08:15 PM
44434 15.7 3.90 0 74 52 69 4.50 -85 8 06/24/2025 08:00 PM
44433 15.7 3.99 8 76 52 70 4.50 -87 6 06/24/2025 07:45 PM
44432 15.7 4.00 8 79 51 72 4.50 -85 6 06/24/2025 07:30 PM
44431 15.8 3.96 12 83 51 75 4.50 -81 8 06/24/2025 07:00 PM
44430 15.8 3.94 0 85 51 77 5.10 -80 7 06/24/2025 06:45 PM
44429 15.8 3.94 0 86 50 78 5.10 -85 7 06/24/2025 06:30 PM
44428 15.8 4.09 0 88 50 80 5.10 -84 8 06/24/2025 06:15 PM